User: anonymous   Login
Location: Pedholt
(56.0260°N, 10.2097°E)
Time: 13:26:14
(UTC+00:00)
Language:

Vanguard 1 - Orbit

View from above orbital plane
View from above orbital plane
View from above satellite
View from above satellite

Ground track
Ground track

The orbit data is extracted from the following two-line orbital elements,

1 00005U 58002B   21213.81093132 -.00000124  00000-0 -13500-3 0  9997
2 00005  34.2474  44.0434 1844492  39.0054 333.0068 10.84824241249825
Epoch (UTC): 01 August 2021 19:27:44
Eccentricity: 0.1844492
inclination: 34.2474°
perigee height: 652 km
apogee height: 3831 km
right ascension of ascending node: 44.0434°
argument of perigee: 39.0054°
revolutions per day: 10.84824241
mean anomaly at epoch: 333.0068°
orbit number at epoch: 24982

The dashed part of the orbit path shows where the satellite is in the earth's shadow,  

DLR